Racine, WI

9:13 AM CST on February 19, 2017 (GMT -0600)
Batten

Weather History for KRAC - February, 2014

Change the Weather History Date:

Thursday, February 27, 2014

  Actual Average Record
Temperature  
Mean Temperature 6 °F -  
Max Temperature 14 °F 36 °F 57 °F (1976)
Min Temperature -5 °F 23 °F -5 °F (2014)
Degree Days  
Heating Degree Days 59    
Moisture  
Dew Point -9 °F    
Average Humidity 53    
Maximum Humidity 81    
Minimum Humidity 34    
Precipitation  
Precipitation 0.00 in - - ()
Sea Level Pressure  
Sea Level Pressure 29.98 in    
Wind  
Wind Speed 12 mph (NW)    
Max Wind Speed 17 mph    
Max Gust Speed 31 mph    
Visibility 8 miles    
Events Snow    
Averages and records for this station are not official NWS values.
T = Trace of Precipitation, MM = Missing Value Source: NWS Daily Summary

Daily Weather History Graph

Daily Weather History Graph

Search for Another Location

Airport or City:

Trip Planner

Search our weather history database for the weather conditions in past years. The results will help you decide how hot, cold, wet, or windy it might be!

Date:

Astronomy

Feb. 27, 2014 Rise Set
Actual Time 6:30 AM CST 5:38 PM CST
Civil Twilight 6:01 AM CST 6:06 PM CST
Nautical Twilight 5:29 AM CST 6:39 PM CST
Astronomical Twilight 4:56 AM CST 7:12 PM CST
Moon 5:04 AM CST (2/27) 4:02 PM CST (2/27)
Length of Visible Light 12h 04m
Length of Day
11h 08m
Waning Crescent, 4% of the Moon is Illuminated
Feb 27
Waning Crescent
Mar 1
New
Mar 8
First Quarter
Mar 16
Full
Mar 23
Last Quarter

Hourly Weather History & Observations

Time (CST) Temp. Windchill Dew Point Humidity Pressure Visibility Wind Dir Wind Speed Gust Speed Precip Events Conditions
12:32 AM 14.0 °F 1.2 °F 6.1 °F 71% 29.61 in 10.0 mi NW 10.4 mph - N/A   Mostly Cloudy
12:43 AM 12.9 °F 0.7 °F 7.0 °F 77% 29.62 in 0.8 mi NNW 9.2 mph - 0.00 in Snow Light Snow
12:53 AM 12.9 °F -3.9 °F 8.1 °F 81% 29.67 in 0.5 mi WNW 17.3 mph 24.2 mph 0.00 in Snow Snow
1:00 AM 12.9 °F -2.8 °F 5.0 °F 71% 29.63 in 2.0 mi NW 15.0 mph 27.6 mph 0.00 in Snow Light Snow
1:11 AM 12.9 °F -2.2 °F 1.9 °F 62% 29.64 in 4.0 mi NW 13.8 mph 26.5 mph 0.00 in   Overcast
1:53 AM 10.0 °F -7.1 °F 1.0 °F 67% 29.72 in 2.0 mi NW 16.1 mph 29.9 mph 0.00 in Snow Light Snow
2:20 AM 9.0 °F -9.0 °F 1.9 °F 73% 29.70 in 1.5 mi NW 17.3 mph 29.9 mph 0.00 in Snow Light Snow
2:30 AM 9.0 °F -9.0 °F 1.0 °F 70% 29.70 in 3.0 mi NW 17.3 mph 27.6 mph 0.00 in Snow Light Snow
2:43 AM 9.0 °F -8.5 °F -4.0 °F 56% 29.71 in 2.0 mi NW 16.1 mph 31.1 mph 0.00 in   Scattered Clouds
2:53 AM 8.1 °F -7.7 °F -5.1 °F 55% 29.76 in 6.0 mi NW 12.7 mph 25.3 mph 0.00 in   Haze
3:53 AM 7.0 °F -11.0 °F -4.0 °F 61% 29.81 in 5.0 mi NW 16.1 mph 31.1 mph 0.00 in   Overcast
4:53 AM 3.9 °F -13.0 °F -13.0 °F 46% 29.88 in 10.0 mi NW 12.7 mph 24.2 mph 0.00 in   Clear
5:53 AM 1.9 °F -16.9 °F -11.9 °F 52% 29.94 in 10.0 mi NW 15.0 mph - N/A   Clear
6:53 AM 1.0 °F -18.7 °F -14.1 °F 49% 29.99 in 10.0 mi NW 16.1 mph 20.7 mph N/A   Clear
7:53 AM 1.0 °F -18.7 °F -15.0 °F 47% 30.04 in 10.0 mi NW 16.1 mph 24.2 mph N/A   Clear
8:53 AM 1.9 °F -16.9 °F -14.1 °F 47% 30.08 in 10.0 mi NW 15.0 mph 21.9 mph N/A   Clear
9:53 AM 3.0 °F -13.3 °F -13.0 °F 47% 30.12 in 10.0 mi NW 11.5 mph - N/A   Clear
10:53 AM 3.9 °F -13.0 °F -11.9 °F 48% 30.15 in 10.0 mi NW 12.7 mph 18.4 mph N/A   Clear
11:53 AM 5.0 °F -10.0 °F -13.0 °F 43% 30.16 in 10.0 mi West 10.4 mph 19.6 mph N/A   Clear
12:53 PM 6.1 °F -9.5 °F -14.1 °F 39% 30.16 in 10.0 mi WNW 11.5 mph - N/A   Clear
1:53 PM 6.1 °F -6.8 °F -15.0 °F 38% 30.17 in 10.0 mi WNW 8.1 mph - N/A   Clear
2:53 PM 7.0 °F -7.5 °F -16.1 °F 34% 30.18 in 10.0 mi West 10.4 mph - N/A   Clear
3:53 PM 7.0 °F -5.7 °F -16.1 °F 34% 30.19 in 10.0 mi NW 8.1 mph - N/A   Clear
4:53 PM 7.0 °F -3.3 °F -16.1 °F 34% 30.20 in 10.0 mi NW 5.8 mph - N/A   Clear
5:53 PM 5.0 °F -2.1 °F -16.1 °F 37% 30.22 in 10.0 mi WNW 3.5 mph - N/A   Clear
6:53 PM 3.9 °F -3.4 °F -16.1 °F 39% 30.23 in 10.0 mi WNW 3.5 mph - N/A   Clear
7:53 PM 1.9 °F -5.6 °F -14.1 °F 47% 30.23 in 10.0 mi NW 3.5 mph - N/A   Clear
8:53 PM -0.0 °F -7.9 °F -14.1 °F 52% 30.25 in 10.0 mi NW 3.5 mph - N/A   Clear
9:53 PM -2.9 °F -11.2 °F -14.1 °F 59% 30.26 in 10.0 mi West 3.5 mph - N/A   Clear
10:53 PM -2.9 °F - -14.1 °F 59% 30.26 in 10.0 mi Calm Calm - N/A   Clear
11:53 PM -5.1 °F - -15.0 °F 62% 30.25 in 10.0 mi Calm Calm - N/A   Clear